Location: Litvinovka
(48.6667°N, 34.3500°E)
Time: 16:03:54
(UTC+00:00)

Meteor 2-9 Rocket - Pass Details

Date: 18 September 2020
Orbit: 791 x 896 km, 81.3° (Epoch: 22 October)

Event Time Altitude Azimuth Distance (km) Brightness Sun altitude
Rises 16:09:00 0° 173° (S) 3,498 7.3 -4.2°
Reaches altitude 10° 16:11:31 10° 168° (SSE) 2,561 6.5 -4.6°
Maximum altitude 16:17:08 51° 95° (E) 1,107 4.5 -5.5°
Drops below altitude 10° 16:22:44 10° 21° (NNE) 2,544 6.6 -6.5°
Sets 16:25:13 0° 16° (NNE) 3,474 7.3 -6.9°
